Météo Nord-Pas-de-Calais   La météo au plus près de chez vous

Station météorologique

Observations météo à Trappes (78621)

78621001 167 m Dernier relevé à 08:30
15.8°C
Humidité 72 % Vent 6.1 km/h 1024.7 hPa

Journée consultée

Dimanche 6 Septembre 2026

Synthèse de la journée

Périodes de référence en UTC

Température maximale

15.8°C

à 08:30

06h 06h

Température minimale

13.8°C

à 05:30

18h 18h

Rafale maximale

16 km/h

à 03:18

00h 00h

Précipitations

0 mm

Cumul quotidien

06h 06h

Ensoleillement

0h 49 mins

Durée quotidienne

00h 00h

Graphiques de la journée

Heure locale Réduire

Données détaillées

Relevés météo

Pas de 6 minutes Afficher les relevés infra-horaires
Relevés météo détaillés à Trappes pour le Dimanche 6 Septembre 2026
Heure Température °C Point de rosée °C Humidité % Vent moyen (raf.), km/h Précipitations mm Température à 10 cm °C Température à 20 cm °C Température à 50 cm °C Température à 100 cm °C Visibilité m Hauteur neige cm Ensoleillement min Rayonnement global W/m² Pression hPa Nébulosité Octas
08:30 15.8 °C 9.9 °C 68 % 8 km/h (13 km/h) 0 mm0 mm 18.5 °C 19.5 °C 19.8 °C 18.7 °C 20000 m 0 cm 6 min 49.3 W/m² 1024.5 hPa
08:24 15.5 °C 9.6 °C 68 % 7 km/h (13 km/h) 0 mm0 mm 18.6 °C 19.5 °C 19.8 °C 18.7 °C 20000 m 0 cm 6 min 34.1 W/m² 1024.5 hPa
08:18 15.4 °C 10 °C 70 % 6 km/h (13 km/h) 0 mm0 mm 18.6 °C 19.5 °C 19.7 °C 18.7 °C 20000 m 0 cm 6 min 37.8 W/m² 1024.6 hPa
08:12 15.1 °C 9.9 °C 71 % 5 km/h (9 km/h) 0 mm0 mm 18.6 °C 19.5 °C 19.7 °C 18.7 °C 20000 m 0 cm 6 min 32.2 W/m² 1024.8 hPa
08:06 14.8 °C 9.8 °C 72 % 5 km/h (9 km/h) 0 mm0 mm 18.6 °C 19.5 °C 19.8 °C 18.7 °C 20000 m 0 cm 6 min 24.7 W/m² 1024.7 hPa
08:00 14.6 °C 9.8 °C 73 % 5 km/h (8 km/h) 0 mm0 mm 18.6 °C 19.5 °C 19.8 °C 18.7 °C 20000 m 0 cm 6 min 22.2 W/m² 1024.7 hPa
07:54 14.6 °C 9.8 °C 73 % 6 km/h (12 km/h) 0 mm0 mm 18.7 °C 19.6 °C 19.8 °C 18.7 °C 20000 m 0 cm 6 min 17.1 W/m² 1024.7 hPa
07:48 14.4 °C 9.6 °C 73 % 7 km/h (12 km/h) 0 mm0 mm 18.7 °C 19.6 °C 19.8 °C 18.7 °C 20000 m 0 cm 6 min 12 W/m² 1024.8 hPa
07:42 14.4 °C 9.6 °C 73 % 6 km/h (13 km/h) 0 mm0 mm 18.7 °C 19.6 °C 19.8 °C 18.7 °C 20000 m 0 cm 1 min 5.3 W/m² 1024.7 hPa
07:36 14.4 °C 9.6 °C 73 % 5 km/h (9 km/h) 0 mm0 mm 18.7 °C 19.6 °C 19.8 °C 18.7 °C 20000 m 0 cm 0 min 0 W/m² 1024.8 hPa
07:30 14.5 °C 9.5 °C 72 % 6 km/h (10 km/h) 0 mm0 mm 18.7 °C 19.6 °C 19.8 °C 18.7 °C 20000 m 0 cm 0 min 0 W/m² 1024.7 hPa
07:24 14.5 °C 9.5 °C 72 % 7 km/h (10 km/h) 0 mm0 mm 18.7 °C 19.7 °C 19.8 °C 18.7 °C 20000 m 0 cm 0 min 0 W/m² 1024.6 hPa
07:18 14.6 °C 9.6 °C 72 % 6 km/h (10 km/h) 0 mm0 mm 18.7 °C 19.7 °C 19.8 °C 18.7 °C 20000 m 0 cm 0 min 0 W/m² 1024.6 hPa
07:12 14.6 °C 9.6 °C 72 % 6 km/h (11 km/h) 0 mm0 mm 18.7 °C 19.7 °C 19.8 °C 18.7 °C 20000 m 0 cm 0 min 0 W/m² 1024.6 hPa
07:06 14.6 °C 9.6 °C 72 % 6 km/h (13 km/h) 0 mm0 mm 18.8 °C 19.7 °C 19.8 °C 18.7 °C 20000 m 0 cm 0 min 0 W/m² 1024.5 hPa
07:00 14.4 °C 9.6 °C 73 % 6 km/h (14 km/h) 0 mm0 mm 18.8 °C 19.7 °C 19.8 °C 18.7 °C 20000 m 0 cm 0 min 0 W/m² 1024.5 hPa
06:54 14.4 °C 9.6 °C 73 % 6 km/h (13 km/h) 0 mm0 mm 18.8 °C 19.8 °C 19.8 °C 18.7 °C 20000 m 0 cm 0 min 0 W/m² 1024.4 hPa
06:48 14.5 °C 9.7 °C 73 % 7 km/h (13 km/h) 0 mm0 mm 18.9 °C 19.8 °C 19.8 °C 18.7 °C 20000 m 0 cm 0 min 0 W/m² 1024.4 hPa
06:42 14.5 °C 9.7 °C 73 % 6 km/h (10 km/h) 0 mm0 mm 18.9 °C 19.8 °C 19.8 °C 18.7 °C 20000 m 0 cm 0 min 0 W/m² 1024.4 hPa
06:36 14.4 °C 9.6 °C 73 % 6 km/h (11 km/h) 0 mm0 mm 18.9 °C 19.8 °C 19.8 °C 18.7 °C 20000 m 0 cm 0 min 0 W/m² 1024.6 hPa
06:30 14.4 °C 9.8 °C 74 % 6 km/h (11 km/h) 0 mm0 mm 18.9 °C 19.8 °C 19.8 °C 18.7 °C 20000 m 0 cm 0 min 0 W/m² 1024.6 hPa
06:24 14.3 °C 9.9 °C 75 % 6 km/h (10 km/h) 0 mm0 mm 18.9 °C 19.8 °C 19.8 °C 18.7 °C 20000 m 0 cm 0 min 0 W/m² 1024.7 hPa
06:18 14 °C 9.8 °C 76 % 7 km/h (12 km/h) 0 mm0 mm 19 °C 19.8 °C 19.8 °C 18.7 °C 20000 m 0 cm 0 min 0 W/m² 1024.8 hPa
06:12 13.8 °C 9.8 °C 77 % 8 km/h (12 km/h) 0 mm0 mm 19 °C 19.9 °C 19.8 °C 18.7 °C 20000 m 0 cm 0 min 0 W/m² 1024.9 hPa
06:06 13.8 °C 9.8 °C 77 % 7 km/h (11 km/h) 0 mm0 mm 19 °C 19.9 °C 19.8 °C 18.7 °C 20000 m 0 cm 0 min 0 W/m² 1024.9 hPa
06:00 13.8 °C 9.8 °C 77 % 7 km/h (9 km/h) 0 mm0 mm 19 °C 19.9 °C 19.8 °C 18.7 °C 20000 m 0 cm 0 min 0 W/m² 1024.9 hPa
05:54 13.9 °C 9.9 °C 77 % 7 km/h (9 km/h) 0 mm0 mm 19 °C 19.9 °C 19.8 °C 18.7 °C 20000 m 0 cm 0 min 0 W/m² 1024.9 hPa
05:48 13.8 °C 9.8 °C 77 % 7 km/h (9 km/h) 0 mm0 mm 19.1 °C 19.9 °C 19.8 °C 18.7 °C 20000 m 0 cm 0 min 0 W/m² 1024.9 hPa
05:42 13.9 °C 9.7 °C 76 % 6 km/h (10 km/h) 0 mm0 mm 19.1 °C 20 °C 19.8 °C 18.7 °C 20000 m 0 cm 0 min 0 W/m² 1025 hPa
05:36 13.9 °C 9.9 °C 77 % 5 km/h (10 km/h) 0 mm0 mm 19.1 °C 20 °C 19.8 °C 18.7 °C 20000 m 0 cm 0 min 0 W/m² 1025.1 hPa
05:30 13.8 °C 9.8 °C 77 % 6 km/h (8 km/h) 0 mm0 mm 19.2 °C 20 °C 19.8 °C 18.7 °C 20000 m 0 cm 0 min 0 W/m² 1025.1 hPa
05:24 13.9 °C 9.9 °C 77 % 6 km/h (9 km/h) 0 mm0 mm 19.2 °C 20 °C 19.8 °C 18.7 °C 20000 m 0 cm 0 min 0 W/m² 1025.2 hPa
05:18 13.9 °C 9.9 °C 77 % 7 km/h (9 km/h) 0 mm0 mm 19.2 °C 20 °C 19.8 °C 18.7 °C 20000 m 0 cm 0 min 0 W/m² 1025.2 hPa
05:12 13.9 °C 9.7 °C 76 % 6 km/h (9 km/h) 0 mm0 mm 19.2 °C 20.1 °C 19.8 °C 18.7 °C 20000 m 0 cm 0 min 0 W/m² 1025.3 hPa
05:06 14.2 °C 10 °C 76 % 5 km/h (7 km/h) 0 mm0 mm 19.2 °C 20.1 °C 19.8 °C 18.7 °C 20000 m 0 cm 0 min 0 W/m² 1025.2 hPa
05:00 14.5 °C 10.1 °C 75 % 5 km/h (8 km/h) 0 mm0 mm 19.3 °C 20.1 °C 19.8 °C 18.7 °C 20000 m 0 cm 0 min 0 W/m² 1025.3 hPa 7 Octas
04:54 14.4 °C 10 °C 75 % 4 km/h (8 km/h) 0 mm0 mm 19.3 °C 20.1 °C 19.8 °C 18.7 °C 20000 m 0 cm 0 min 0 W/m² 1025.4 hPa
04:48 14.3 °C 9.9 °C 75 % 4 km/h (6 km/h) 0 mm0 mm 19.3 °C 20.1 °C 19.8 °C 18.7 °C 20000 m 0 cm 0 min 0 W/m² 1025.4 hPa
04:42 14.5 °C 9.9 °C 74 % 5 km/h (8 km/h) 0 mm0 mm 19.3 °C 20.1 °C 19.8 °C 18.7 °C 20000 m 0 cm 0 min 0 W/m² 1025.4 hPa
04:36 14.8 °C 10 °C 73 % 5 km/h (8 km/h) 0 mm0 mm 19.4 °C 20.2 °C 19.8 °C 18.7 °C 20000 m 0 cm 0 min 0 W/m² 1025.4 hPa
04:30 14.8 °C 10 °C 73 % 5 km/h (7 km/h) 0 mm0 mm 19.4 °C 20.2 °C 19.8 °C 18.7 °C 20000 m 0 cm 0 min 0 W/m² 1025.5 hPa
04:24 14.8 °C 10 °C 73 % 5 km/h (7 km/h) 0 mm0 mm 19.4 °C 20.2 °C 19.8 °C 18.7 °C 20000 m 0 cm 0 min 0 W/m² 1025.6 hPa
04:18 14.5 °C 9.9 °C 74 % 4 km/h (6 km/h) 0 mm0 mm 19.5 °C 20.2 °C 19.8 °C 18.7 °C 20000 m 0 cm 0 min 0 W/m² 1025.6 hPa
04:12 14.6 °C 9.8 °C 73 % 4 km/h (8 km/h) 0 mm0 mm 19.5 °C 20.3 °C 19.8 °C 18.7 °C 20000 m 0 cm 0 min 0 W/m² 1025.6 hPa
04:06 14.8 °C 10 °C 73 % 6 km/h (9 km/h) 0 mm0 mm 19.5 °C 20.3 °C 19.8 °C 18.7 °C 20000 m 0 cm 0 min 0 W/m² 1025.5 hPa
04:00 14.9 °C 10.1 °C 73 % 6 km/h (9 km/h) 0 mm0 mm 19.6 °C 20.3 °C 19.8 °C 18.7 °C 20000 m 0 cm 0 min 0 W/m² 1025.5 hPa
03:54 14.8 °C 10 °C 73 % 5 km/h (8 km/h) 0 mm0 mm 19.6 °C 20.3 °C 19.8 °C 18.7 °C 20000 m 0 cm 0 min 0 W/m² 1025.6 hPa
03:48 15.2 °C 10 °C 71 % 5 km/h (8 km/h) 0 mm0 mm 19.6 °C 20.4 °C 19.8 °C 18.7 °C 20000 m 0 cm 0 min 0 W/m² 1025.7 hPa
03:42 15.2 °C 10 °C 71 % 6 km/h (10 km/h) 0 mm0 mm 19.6 °C 20.4 °C 19.8 °C 18.7 °C 20000 m 0 cm 0 min 0 W/m² 1025.8 hPa
03:36 15.2 °C 10 °C 71 % 8 km/h (11 km/h) 0 mm0 mm 19.7 °C 20.4 °C 19.8 °C 18.7 °C 20000 m 0 cm 0 min 0 W/m² 1025.8 hPa
03:30 15.4 °C 10.2 °C 71 % 8 km/h (12 km/h) 0 mm0 mm 19.7 °C 20.4 °C 19.8 °C 18.7 °C 20000 m 0 cm 0 min 0 W/m² 1025.9 hPa
03:24 15.3 °C 10.1 °C 71 % 9 km/h (14 km/h) 0 mm0 mm 19.7 °C 20.5 °C 19.8 °C 18.7 °C 20000 m 0 cm 0 min 0 W/m² 1025.8 hPa
03:18 15.4 °C 10.2 °C 71 % 10 km/h (15 km/h) 0 mm0 mm 19.7 °C 20.5 °C 19.8 °C 18.7 °C 20000 m 0 cm 0 min 0 W/m² 1025.8 hPa
03:12 15.1 °C 10.3 °C 73 % 10 km/h (14 km/h) 0 mm0 mm 19.8 °C 20.5 °C 19.8 °C 18.7 °C 20000 m 0 cm 0 min 0 W/m² 1025.7 hPa
03:06 15.1 °C 10.1 °C 72 % 8 km/h (12 km/h) 0 mm0 mm 19.8 °C 20.5 °C 19.8 °C 18.7 °C 20000 m 0 cm 0 min 0 W/m² 1025.8 hPa
03:00 15.1 °C 10.3 °C 73 % 8 km/h (10 km/h) 0 mm0 mm 19.8 °C 20.5 °C 19.8 °C 18.7 °C 20000 m 0 cm 0 min 0 W/m² 1026 hPa
02:54 15 °C 10.2 °C 73 % 7 km/h (10 km/h) 0 mm0 mm 19.9 °C 20.6 °C 19.8 °C 18.7 °C 20000 m 0 cm 0 min 0 W/m² 1025.9 hPa
02:48 15.1 °C 10.1 °C 72 % 6 km/h (9 km/h) 0 mm0 mm 19.9 °C 20.6 °C 19.8 °C 18.7 °C 20000 m 0 cm 0 min 0 W/m² 1026 hPa
02:42 15.3 °C 10.1 °C 71 % 6 km/h (9 km/h) 0 mm0 mm 19.9 °C 20.6 °C 19.8 °C 18.7 °C 20000 m 0 cm 0 min 0 W/m² 1026.1 hPa
02:36 15.2 °C 10.2 °C 72 % 6 km/h (9 km/h) 0 mm0 mm 19.9 °C 20.6 °C 19.8 °C 18.7 °C 20000 m 0 cm 0 min 0 W/m² 1026.1 hPa
02:30 15.3 °C 10.1 °C 71 % 6 km/h (9 km/h) 0 mm0 mm 20 °C 20.6 °C 19.8 °C 18.7 °C 20000 m 0 cm 0 min 0 W/m² 1026.1 hPa
02:24 15.5 °C 10.3 °C 71 % 6 km/h (10 km/h) 0 mm0 mm 20 °C 20.7 °C 19.8 °C 18.7 °C 20000 m 0 cm 0 min 0 W/m² 1026.2 hPa
02:18 15.6 °C 10.1 °C 70 % 8 km/h (11 km/h) 0 mm0 mm 20 °C 20.7 °C 19.8 °C 18.7 °C 20000 m 0 cm 0 min 0 W/m² 1026.1 hPa
02:12 15.5 °C 10 °C 70 % 7 km/h (11 km/h) 0 mm0 mm 20.1 °C 20.7 °C 19.8 °C 18.7 °C 20000 m 0 cm 0 min 0 W/m² 1026.1 hPa
02:06 15.6 °C 10.1 °C 70 % 7 km/h (9 km/h) 0 mm0 mm 20.1 °C 20.7 °C 19.8 °C 18.7 °C 20000 m 0 cm 0 min 0 W/m² 1026.1 hPa
02:00 15.6 °C 10.1 °C 70 % 7 km/h (10 km/h) 0 mm0 mm 20.1 °C 20.8 °C 19.8 °C 18.7 °C 20000 m 0 cm 0 min 0 W/m² 1026.2 hPa
01:54 15.8 °C 10.3 °C 70 % 8 km/h (12 km/h) 0 mm0 mm 20.2 °C 20.8 °C 19.8 °C 18.7 °C 20000 m 0 cm 0 min 0 W/m² 1026.1 hPa
01:48 15.9 °C 10.2 °C 69 % 8 km/h (12 km/h) 0 mm0 mm 20.2 °C 20.8 °C 19.8 °C 18.7 °C 20000 m 0 cm 0 min 0 W/m² 1026.1 hPa
01:42 15.9 °C 10.2 °C 69 % 8 km/h (11 km/h) 0 mm0 mm 20.2 °C 20.8 °C 19.7 °C 18.7 °C 20000 m 0 cm 0 min 0 W/m² 1026.1 hPa
01:36 16 °C 10.3 °C 69 % 8 km/h (11 km/h) 0 mm0 mm 20.3 °C 20.9 °C 19.8 °C 18.7 °C 20000 m 0 cm 0 min 0 W/m² 1026.1 hPa
01:30 16.2 °C 10.3 °C 68 % 8 km/h (11 km/h) 0 mm0 mm 20.3 °C 20.9 °C 19.8 °C 18.7 °C 20000 m 0 cm 0 min 0 W/m² 1026.1 hPa
01:24 16.1 °C 10.2 °C 68 % 9 km/h (12 km/h) 0 mm0 mm 20.4 °C 20.9 °C 19.8 °C 18.7 °C 20000 m 0 cm 0 min 0 W/m² 1026.1 hPa
01:18 16.2 °C 10.3 °C 68 % 9 km/h (13 km/h) 0 mm0 mm 20.4 °C 20.9 °C 19.8 °C 18.7 °C 20000 m 0 cm 0 min 0 W/m² 1026 hPa
01:12 16.3 °C 10.4 °C 68 % 9 km/h (14 km/h) 0 mm0 mm 20.4 °C 20.9 °C 19.7 °C 18.7 °C 20000 m 0 cm 0 min 0 W/m² 1026.1 hPa
01:06 16.2 °C 10.3 °C 68 % 9 km/h (14 km/h) 0 mm0 mm 20.5 °C 20.9 °C 19.7 °C 18.7 °C 20000 m 0 cm 0 min 0 W/m² 1026 hPa
01:00 16.3 °C 10.2 °C 67 % 9 km/h (13 km/h) 0 mm0 mm 20.5 °C 21 °C 19.7 °C 18.7 °C 20000 m 0 cm 0 min 0 W/m² 1026.1 hPa
00:54 16.4 °C 10.3 °C 67 % 9 km/h (13 km/h) 0 mm0 mm 20.5 °C 21 °C 19.8 °C 18.7 °C 20000 m 0 cm 0 min 0 W/m² 1026.1 hPa
00:48 16.4 °C 10.3 °C 67 % 8 km/h (11 km/h) 0 mm0 mm 20.6 °C 21 °C 19.8 °C 18.7 °C 20000 m 0 cm 0 min 0 W/m² 1026 hPa
00:42 16.3 °C 10.2 °C 67 % 8 km/h (11 km/h) 0 mm0 mm 20.6 °C 21.1 °C 19.7 °C 18.7 °C 20000 m 0 cm 0 min 0 W/m² 1025.9 hPa
00:36 16.6 °C 10.2 °C 66 % 7 km/h (12 km/h) 0 mm0 mm 20.6 °C 21.1 °C 19.8 °C 18.7 °C 20000 m 0 cm 0 min 0 W/m² 1025.9 hPa
00:30 16.6 °C 10.2 °C 66 % 8 km/h (12 km/h) 0 mm0 mm 20.7 °C 21.1 °C 19.8 °C 18.7 °C 20000 m 0 cm 0 min 0 W/m² 1026 hPa
00:24 16.6 °C 10 °C 65 % 8 km/h (12 km/h) 0 mm0 mm 20.7 °C 21.2 °C 19.7 °C 18.7 °C 20000 m 0 cm 0 min 0 W/m² 1025.9 hPa
00:18 16.8 °C 9.9 °C 64 % 6 km/h (10 km/h) 0 mm0 mm 20.8 °C 21.2 °C 19.7 °C 18.7 °C 20000 m 0 cm 0 min 0 W/m² 1026 hPa
00:12 16.8 °C 9.7 °C 63 % 6 km/h (10 km/h) 0 mm0 mm 20.8 °C 21.2 °C 19.7 °C 18.7 °C 20000 m 0 cm 0 min 0 W/m² 1026 hPa
00:06 16.7 °C 9.6 °C 63 % 5 km/h (9 km/h) 0 mm0 mm 20.9 °C 21.2 °C 19.7 °C 18.7 °C 20000 m 0 cm 0 min 0 W/m² 1026 hPa
00:00 16.8 °C 9.7 °C 63 % 6 km/h (10 km/h) 0 mm0 mm 20.9 °C 21.2 °C 19.7 °C 18.7 °C 20000 m 0 cm 0 min 0 W/m² 1026 hPa

Données via Météo-France

Relevés météo à Trappes

Cette page rassemble les observations de la station de Trappes : température, humidité, vent, précipitations et pression atmosphérique. Les graphiques facilitent le suivi de la journée, tandis que le tableau donne accès aux mesures horaires et infra-horaires disponibles.

Pour replacer ces mesures dans leur contexte, consultez la climatologie de Trappes ainsi que ses normales et records. Retrouvez aussi la carte des observations météo en temps réel.